Year,Month,Day,Hour,Minute,Value (Times are PST for temperature in C)
2009,05,21,00,00,7.10
2009,05,21,00,01,7.10
2009,05,21,00,02,7.10
2009,05,21,00,03,7.10
2009,05,21,00,04,7.00
2009,05,21,00,05,7.00
2009,05,21,00,06,7.00
2009,05,21,00,07,7.00
2009,05,21,00,08,7.00
2009,05,21,00,09,6.90
2009,05,21,00,10,6.90
2009,05,21,00,11,6.90
2009,05,21,00,12,6.90
2009,05,21,00,13,6.90
2009,05,21,00,14,6.90
2009,05,21,00,15,6.90
2009,05,21,00,16,6.90
2009,05,21,00,17,6.90
2009,05,21,00,18,6.90
2009,05,21,00,19,6.80
2009,05,21,00,20,6.80
2009,05,21,00,21,6.80
2009,05,21,00,22,6.80
2009,05,21,00,23,6.80
2009,05,21,00,24,6.80
2009,05,21,00,25,6.80
2009,05,21,00,26,6.80
2009,05,21,00,27,6.70
2009,05,21,00,28,6.70
2009,05,21,00,29,6.70
2009,05,21,00,30,6.70
2009,05,21,00,31,6.70
2009,05,21,00,32,6.70
2009,05,21,00,33,6.70
2009,05,21,00,34,6.70
2009,05,21,00,35,6.60
2009,05,21,00,36,6.60
2009,05,21,00,37,6.60
2009,05,21,00,38,6.60
2009,05,21,00,39,6.60
2009,05,21,00,40,6.60
2009,05,21,00,41,6.60
2009,05,21,00,42,6.60
2009,05,21,00,43,6.60
2009,05,21,00,44,6.50
2009,05,21,00,45,6.50
2009,05,21,00,46,6.50
2009,05,21,00,47,6.50
2009,05,21,00,48,6.50
2009,05,21,00,49,6.40
2009,05,21,00,50,6.40
2009,05,21,00,51,6.40
2009,05,21,00,52,6.40
2009,05,21,00,53,6.40
2009,05,21,00,54,6.40
2009,05,21,00,55,6.40
2009,05,21,00,56,6.40
2009,05,21,00,57,6.30
2009,05,21,00,58,6.30
2009,05,21,00,59,6.30
2009,05,21,01,00,6.30
2009,05,21,01,01,6.30
2009,05,21,01,02,6.30
2009,05,21,01,03,6.30
2009,05,21,01,04,6.30
2009,05,21,01,05,6.30
2009,05,21,01,06,6.30
2009,05,21,01,07,6.30
2009,05,21,01,08,6.20
2009,05,21,01,09,6.20
2009,05,21,01,10,6.20
2009,05,21,01,11,6.20
2009,05,21,01,12,6.20
2009,05,21,01,13,6.20
2009,05,21,01,14,6.20
2009,05,21,01,15,6.20
2009,05,21,01,16,6.20
2009,05,21,01,17,6.10
2009,05,21,01,18,6.10
2009,05,21,01,19,6.10
2009,05,21,01,20,6.10
2009,05,21,01,21,6.10
2009,05,21,01,22,6.10
2009,05,21,01,23,6.10
2009,05,21,01,24,6.00
2009,05,21,01,25,6.00
2009,05,21,01,26,6.00
2009,05,21,01,27,6.00
2009,05,21,01,28,6.00
2009,05,21,01,29,5.90
2009,05,21,01,30,5.90
2009,05,21,01,31,5.90
2009,05,21,01,32,5.90
2009,05,21,01,33,5.90
2009,05,21,01,34,5.90
2009,05,21,01,35,5.90
2009,05,21,01,36,5.90
2009,05,21,01,37,5.80
2009,05,21,01,38,5.80
2009,05,21,01,39,5.80
2009,05,21,01,40,5.80
2009,05,21,01,41,5.80
2009,05,21,01,42,5.80
2009,05,21,01,43,5.70
2009,05,21,01,44,5.70
2009,05,21,01,45,5.70
2009,05,21,01,46,5.70
2009,05,21,01,47,5.70
2009,05,21,01,48,5.70
2009,05,21,01,49,5.70
2009,05,21,01,50,5.60
2009,05,21,01,51,5.60
2009,05,21,01,52,5.60
2009,05,21,01,53,5.60
2009,05,21,01,54,5.60
2009,05,21,01,55,5.60
2009,05,21,01,56,5.60
2009,05,21,01,57,5.60
2009,05,21,01,58,5.60
2009,05,21,01,59,5.60
2009,05,21,02,00,5.50
2009,05,21,02,01,5.50
2009,05,21,02,02,5.50
2009,05,21,02,03,5.50
2009,05,21,02,04,5.50
2009,05,21,02,05,5.50
2009,05,21,02,06,5.50
2009,05,21,02,07,5.50
2009,05,21,02,08,5.50
2009,05,21,02,09,5.50
2009,05,21,02,10,5.50
2009,05,21,02,11,5.50
2009,05,21,02,12,5.50
2009,05,21,02,13,5.50
2009,05,21,02,14,5.50
2009,05,21,02,15,5.50
2009,05,21,02,16,5.50
2009,05,21,02,17,5.50
2009,05,21,02,18,5.50
2009,05,21,02,19,5.40
2009,05,21,02,20,5.40
2009,05,21,02,21,5.40
2009,05,21,02,22,5.40
2009,05,21,02,23,5.40
2009,05,21,02,24,5.40
2009,05,21,02,25,5.40
2009,05,21,02,26,5.40
2009,05,21,02,27,5.40
2009,05,21,02,28,5.40
2009,05,21,02,29,5.40
2009,05,21,02,30,5.40
2009,05,21,02,31,5.40
2009,05,21,02,32,5.40
2009,05,21,02,33,5.40
2009,05,21,02,34,5.40
2009,05,21,02,35,5.40
2009,05,21,02,36,5.40
2009,05,21,02,37,5.40
2009,05,21,02,38,5.40
2009,05,21,02,39,5.40
2009,05,21,02,40,5.40
2009,05,21,02,41,5.40
2009,05,21,02,42,5.30
2009,05,21,02,43,5.30
2009,05,21,02,44,5.30
2009,05,21,02,45,5.30
2009,05,21,02,46,5.30
2009,05,21,02,47,5.30
2009,05,21,02,48,5.30
2009,05,21,02,49,5.30
2009,05,21,02,50,5.30
2009,05,21,02,51,5.30
2009,05,21,02,52,5.30
2009,05,21,02,53,5.30
2009,05,21,02,54,5.20
2009,05,21,02,55,5.20
2009,05,21,02,56,5.20
2009,05,21,02,57,5.20
2009,05,21,02,58,5.20
2009,05,21,02,59,5.20
2009,05,21,03,00,5.20
2009,05,21,03,01,5.20
2009,05,21,03,02,5.20
2009,05,21,03,03,5.20
2009,05,21,03,04,5.20
2009,05,21,03,05,5.20
2009,05,21,03,06,5.10
2009,05,21,03,07,5.10
2009,05,21,03,08,5.10
2009,05,21,03,09,5.10
2009,05,21,03,10,5.10
2009,05,21,03,11,5.10
2009,05,21,03,12,5.10
2009,05,21,03,13,5.10
2009,05,21,03,14,5.10
2009,05,21,03,15,5.10
2009,05,21,03,16,5.10
2009,05,21,03,17,5.10
2009,05,21,03,18,5.10
2009,05,21,03,19,5.10
2009,05,21,03,20,5.10
2009,05,21,03,21,5.10
2009,05,21,03,22,5.10
2009,05,21,03,23,5.10
2009,05,21,03,24,5.00
2009,05,21,03,25,5.00
2009,05,21,03,26,5.00
2009,05,21,03,27,5.00
2009,05,21,03,28,5.00
2009,05,21,03,29,4.90
2009,05,21,03,30,4.90
2009,05,21,03,31,4.90
2009,05,21,03,32,4.90
2009,05,21,03,33,4.90
2009,05,21,03,34,4.90
2009,05,21,03,35,4.90
2009,05,21,03,36,4.90
2009,05,21,03,37,4.90
2009,05,21,03,38,4.90
2009,05,21,03,39,4.90
2009,05,21,03,40,4.90
2009,05,21,03,41,4.90
2009,05,21,03,42,4.80
2009,05,21,03,43,4.80
2009,05,21,03,44,4.80
2009,05,21,03,45,4.80
2009,05,21,03,46,4.80
2009,05,21,03,47,4.80
2009,05,21,03,48,4.80
2009,05,21,03,49,4.80
2009,05,21,03,50,4.80
2009,05,21,03,51,4.80
2009,05,21,03,52,4.80
2009,05,21,03,53,4.80
2009,05,21,03,54,4.80
2009,05,21,03,55,4.80
2009,05,21,03,56,4.70
2009,05,21,03,57,4.70
2009,05,21,03,58,4.70
2009,05,21,03,59,4.70
2009,05,21,04,00,4.70
2009,05,21,04,01,4.70
2009,05,21,04,02,4.70
2009,05,21,04,03,4.70
2009,05,21,04,04,4.70
2009,05,21,04,05,4.70
2009,05,21,04,06,4.80
2009,05,21,04,07,4.80
2009,05,21,04,08,4.80
2009,05,21,04,09,4.80
2009,05,21,04,10,4.80
2009,05,21,04,11,4.80
2009,05,21,04,12,4.80
2009,05,21,04,13,4.80
2009,05,21,04,14,4.80
2009,05,21,04,15,4.80
2009,05,21,04,16,4.80
2009,05,21,04,17,4.80
2009,05,21,04,18,4.80
2009,05,21,04,19,4.80
2009,05,21,04,20,4.80
2009,05,21,04,21,4.80
2009,05,21,04,22,4.80
2009,05,21,04,23,4.80
2009,05,21,04,24,4.80
2009,05,21,04,25,4.80
2009,05,21,04,26,4.80
2009,05,21,04,27,4.80
2009,05,21,04,28,4.80
2009,05,21,04,29,4.80
2009,05,21,04,30,4.80
2009,05,21,04,31,4.80
2009,05,21,04,32,4.80
2009,05,21,04,33,4.80
2009,05,21,04,34,4.80
2009,05,21,04,35,4.80
2009,05,21,04,36,4.80
2009,05,21,04,37,4.80
2009,05,21,04,38,4.80
2009,05,21,04,39,4.80
2009,05,21,04,40,4.80
2009,05,21,04,41,4.80
2009,05,21,04,42,4.80
2009,05,21,04,43,4.80
2009,05,21,04,44,4.80
2009,05,21,04,45,4.80
2009,05,21,04,46,4.80
2009,05,21,04,47,4.80
2009,05,21,04,48,4.80
2009,05,21,04,49,4.80
2009,05,21,04,50,4.80
2009,05,21,04,51,4.80
2009,05,21,04,52,4.80
2009,05,21,04,53,4.80
2009,05,21,04,54,4.80
2009,05,21,04,55,4.80
2009,05,21,04,56,4.80
2009,05,21,04,57,4.80
2009,05,21,04,58,4.80
2009,05,21,04,59,4.70
2009,05,21,05,00,4.70
2009,05,21,05,01,4.70
2009,05,21,05,02,4.70
2009,05,21,05,03,4.70
2009,05,21,05,04,4.70
2009,05,21,05,05,4.70
2009,05,21,05,06,4.70
2009,05,21,05,07,4.70
2009,05,21,05,08,4.70
2009,05,21,05,09,4.70
2009,05,21,05,10,4.70
2009,05,21,05,11,4.70
2009,05,21,05,12,4.70
2009,05,21,05,13,4.70
2009,05,21,05,14,4.70
2009,05,21,05,15,4.70
2009,05,21,05,16,4.70
2009,05,21,05,17,4.70
2009,05,21,05,18,4.70
2009,05,21,05,19,4.70
2009,05,21,05,20,4.70
2009,05,21,05,21,4.70
2009,05,21,05,22,4.70
2009,05,21,05,23,4.70
2009,05,21,05,24,4.70
2009,05,21,05,25,4.70
2009,05,21,05,26,4.70
2009,05,21,05,27,4.70
2009,05,21,05,28,4.70
2009,05,21,05,29,4.70
2009,05,21,05,30,4.70
2009,05,21,05,31,4.70
2009,05,21,05,32,4.70
2009,05,21,05,33,4.70
2009,05,21,05,34,4.70
2009,05,21,05,35,4.70
2009,05,21,05,36,4.70
2009,05,21,05,37,4.70
2009,05,21,05,38,4.80
2009,05,21,05,39,4.80
2009,05,21,05,40,4.80
2009,05,21,05,41,4.80
2009,05,21,05,42,4.80
2009,05,21,05,43,4.80
2009,05,21,05,44,4.80
2009,05,21,05,45,4.80
2009,05,21,05,46,4.70
2009,05,21,05,47,4.80
2009,05,21,05,48,4.80
2009,05,21,05,49,4.80
2009,05,21,05,50,4.80
2009,05,21,05,51,4.80
2009,05,21,05,52,4.80
2009,05,21,05,53,4.80
2009,05,21,05,54,4.80
2009,05,21,05,55,4.80
2009,05,21,05,56,4.80
2009,05,21,05,57,4.80
2009,05,21,05,58,4.80
2009,05,21,05,59,4.80
2009,05,21,06,00,4.80
2009,05,21,06,01,4.80
2009,05,21,06,02,4.80
2009,05,21,06,03,4.80
2009,05,21,06,04,4.80
2009,05,21,06,05,4.80
2009,05,21,06,06,4.80
2009,05,21,06,07,4.80
2009,05,21,06,08,4.80
2009,05,21,06,09,4.80
2009,05,21,06,10,4.80
2009,05,21,06,11,4.80
2009,05,21,06,12,4.80
2009,05,21,06,13,4.90
2009,05,21,06,14,4.90
2009,05,21,06,15,4.90
2009,05,21,06,16,4.90
2009,05,21,06,17,4.90
2009,05,21,06,18,4.90
2009,05,21,06,19,4.90
2009,05,21,06,20,4.90
2009,05,21,06,21,4.90
2009,05,21,06,22,4.90
2009,05,21,06,23,4.90
2009,05,21,06,24,4.90
2009,05,21,06,25,4.90
2009,05,21,06,26,5.00
2009,05,21,06,27,5.00
2009,05,21,06,28,5.00
2009,05,21,06,29,5.00
2009,05,21,06,30,5.00
2009,05,21,06,31,5.00
2009,05,21,06,32,5.10
2009,05,21,06,33,5.10
2009,05,21,06,34,5.10
2009,05,21,06,35,5.10
2009,05,21,06,36,5.10
2009,05,21,06,37,5.10
2009,05,21,06,38,5.10
2009,05,21,06,39,5.10
2009,05,21,06,40,5.10
2009,05,21,06,41,5.10
2009,05,21,06,42,5.10
2009,05,21,06,43,5.10
2009,05,21,06,44,5.10
2009,05,21,06,45,5.20
2009,05,21,06,46,5.20
2009,05,21,06,47,5.20
2009,05,21,06,48,5.20
2009,05,21,06,49,5.20
2009,05,21,06,50,5.20
2009,05,21,06,51,5.20
2009,05,21,06,52,5.20
2009,05,21,06,53,5.20
2009,05,21,06,54,5.20
2009,05,21,06,55,5.20
2009,05,21,06,56,5.30
2009,05,21,06,57,5.30
2009,05,21,06,58,5.30
2009,05,21,06,59,5.30
2009,05,21,07,00,5.30
2009,05,21,07,01,5.30
2009,05,21,07,02,5.30
2009,05,21,07,03,5.30
2009,05,21,07,04,5.30
2009,05,21,07,05,5.30
2009,05,21,07,06,5.30
2009,05,21,07,07,5.40
2009,05,21,07,08,5.40
2009,05,21,07,09,5.40
2009,05,21,07,10,5.40
2009,05,21,07,11,5.40
2009,05,21,07,12,5.40
2009,05,21,07,13,5.40
2009,05,21,07,14,5.40
2009,05,21,07,15,5.40
2009,05,21,07,16,5.40
2009,05,21,07,17,5.50
2009,05,21,07,18,5.50
2009,05,21,07,19,5.50
2009,05,21,07,20,5.50
2009,05,21,07,21,5.50
2009,05,21,07,22,5.50
2009,05,21,07,23,5.50
2009,05,21,07,24,5.60
2009,05,21,07,25,5.60
2009,05,21,07,26,5.60
2009,05,21,07,27,5.60
2009,05,21,07,28,5.60
2009,05,21,07,29,5.60
2009,05,21,07,30,5.60
2009,05,21,07,31,5.70
2009,05,21,07,32,5.70
2009,05,21,07,33,5.70
2009,05,21,07,34,5.70
2009,05,21,07,35,5.70
2009,05,21,07,36,5.70
2009,05,21,07,37,5.80
2009,05,21,07,38,5.80
2009,05,21,07,39,5.80
2009,05,21,07,40,5.80
2009,05,21,07,41,5.80
2009,05,21,07,42,5.80
2009,05,21,07,43,5.80
2009,05,21,07,44,5.90
2009,05,21,07,45,5.90
2009,05,21,07,46,5.90
2009,05,21,07,47,5.90
2009,05,21,07,48,5.90
2009,05,21,07,49,6.00
2009,05,21,07,50,6.00
2009,05,21,07,51,6.00
2009,05,21,07,52,6.10
2009,05,21,07,53,6.10
2009,05,21,07,54,6.10
2009,05,21,07,55,6.10
2009,05,21,07,56,6.10
2009,05,21,07,57,6.20
2009,05,21,07,58,6.20
2009,05,21,07,59,6.20
2009,05,21,08,00,6.20
2009,05,21,08,01,6.30
2009,05,21,08,02,6.30
2009,05,21,08,03,6.30
2009,05,21,08,04,6.30
2009,05,21,08,05,6.30
2009,05,21,08,06,6.30
2009,05,21,08,07,6.40
2009,05,21,08,08,6.40
2009,05,21,08,09,6.40
2009,05,21,08,10,6.40
2009,05,21,08,11,6.40
2009,05,21,08,12,6.50
2009,05,21,08,13,6.50
2009,05,21,08,14,6.50
2009,05,21,08,15,6.60
2009,05,21,08,16,6.60
2009,05,21,08,17,6.60
2009,05,21,08,18,6.60
2009,05,21,08,19,6.60
2009,05,21,08,20,6.70
2009,05,21,08,21,6.70
2009,05,21,08,22,6.70
2009,05,21,08,23,6.80
2009,05,21,08,24,6.80
2009,05,21,08,25,6.80
2009,05,21,08,26,6.90
2009,05,21,08,27,6.90
2009,05,21,08,28,6.90
2009,05,21,08,29,7.00
2009,05,21,08,30,7.10
2009,05,21,08,31,7.10
2009,05,21,08,32,7.20
2009,05,21,08,33,7.20
2009,05,21,08,34,7.20
2009,05,21,08,35,7.30
2009,05,21,08,36,7.30
2009,05,21,08,37,7.40
2009,05,21,08,38,7.40
2009,05,21,08,39,7.40
2009,05,21,08,40,7.50
2009,05,21,08,41,7.50
2009,05,21,08,42,7.60
2009,05,21,08,43,7.60
2009,05,21,08,44,7.70
2009,05,21,08,45,7.70
2009,05,21,08,46,7.80
2009,05,21,08,47,7.80
2009,05,21,08,48,7.90
2009,05,21,08,49,7.90
2009,05,21,08,50,8.00
2009,05,21,08,51,8.00
2009,05,21,08,52,8.10
2009,05,21,08,53,8.10
2009,05,21,08,54,8.20
2009,05,21,08,55,8.20
2009,05,21,08,56,8.20
2009,05,21,08,57,8.20
2009,05,21,08,58,8.30
2009,05,21,08,59,8.30
2009,05,21,09,00,8.30
2009,05,21,09,01,8.40
2009,05,21,09,02,8.40
2009,05,21,09,03,8.40
2009,05,21,09,04,8.50
2009,05,21,09,05,8.60
2009,05,21,09,06,8.70
2009,05,21,09,07,8.70
2009,05,21,09,08,8.80
2009,05,21,09,09,9.00
2009,05,21,09,10,9.00
2009,05,21,09,11,9.10
2009,05,21,09,12,9.20
2009,05,21,09,13,9.40
2009,05,21,09,14,9.50
2009,05,21,09,15,9.60
2009,05,21,09,16,9.70
2009,05,21,09,17,9.70
2009,05,21,09,18,9.80
2009,05,21,09,19,9.80
2009,05,21,09,20,9.80
2009,05,21,09,21,9.80
2009,05,21,09,22,9.90
2009,05,21,09,23,10.00
2009,05,21,09,24,10.10
2009,05,21,09,25,10.20
2009,05,21,09,26,10.30
2009,05,21,09,27,10.30
2009,05,21,09,28,10.30
2009,05,21,09,29,10.30
2009,05,21,09,30,10.40
2009,05,21,09,31,10.40
2009,05,21,09,32,10.50
2009,05,21,09,33,10.60
2009,05,21,09,34,10.60
2009,05,21,09,35,10.70
2009,05,21,09,36,10.70
2009,05,21,09,37,10.80
2009,05,21,09,38,10.80
2009,05,21,09,39,10.80
2009,05,21,09,40,10.90
2009,05,21,09,41,10.90
2009,05,21,09,42,10.90
2009,05,21,09,43,10.90
2009,05,21,09,44,11.00
2009,05,21,09,45,11.00
2009,05,21,09,46,11.10
2009,05,21,09,47,11.10
2009,05,21,09,48,11.10
2009,05,21,09,49,11.20
2009,05,21,09,50,11.20
2009,05,21,09,51,11.20
2009,05,21,09,52,11.30
2009,05,21,09,53,11.30
2009,05,21,09,54,11.40
2009,05,21,09,55,11.50
2009,05,21,09,56,11.50
2009,05,21,09,57,11.60
2009,05,21,09,58,11.60
2009,05,21,09,59,11.60
2009,05,21,10,00,11.60
2009,05,21,10,01,11.60
2009,05,21,10,02,11.70
2009,05,21,10,03,11.70
2009,05,21,10,04,11.70
2009,05,21,10,05,11.80
2009,05,21,10,06,11.80
2009,05,21,10,07,11.90
2009,05,21,10,08,11.90
2009,05,21,10,09,12.00
2009,05,21,10,10,12.10
2009,05,21,10,11,12.10
2009,05,21,10,12,12.10
2009,05,21,10,13,12.20
2009,05,21,10,14,12.20
2009,05,21,10,15,12.20
2009,05,21,10,16,12.30
2009,05,21,10,17,12.30
2009,05,21,10,18,12.40
2009,05,21,10,19,12.40
2009,05,21,10,20,12.40
2009,05,21,10,21,12.50
2009,05,21,10,22,12.60
2009,05,21,10,23,12.60
2009,05,21,10,24,12.70
2009,05,21,10,25,12.70
2009,05,21,10,26,12.70
2009,05,21,10,27,12.80
2009,05,21,10,28,12.80
2009,05,21,10,29,12.80
2009,05,21,10,30,12.80
2009,05,21,10,31,12.90
2009,05,21,10,32,12.90
2009,05,21,10,33,13.00
2009,05,21,10,34,13.10
2009,05,21,10,35,13.10
2009,05,21,10,36,13.30
2009,05,21,10,37,13.40
2009,05,21,10,38,13.50
2009,05,21,10,39,13.60
2009,05,21,10,40,13.70
2009,05,21,10,41,13.70
2009,05,21,10,42,13.80
2009,05,21,10,43,13.80
2009,05,21,10,44,13.90
2009,05,21,10,45,14.00
2009,05,21,10,46,14.00
2009,05,21,10,47,14.00
2009,05,21,10,48,14.10
2009,05,21,10,49,14.10
2009,05,21,10,50,14.10
2009,05,21,10,51,14.10
2009,05,21,10,52,14.10
2009,05,21,10,53,14.10
2009,05,21,10,54,14.20
2009,05,21,10,55,14.20
2009,05,21,10,56,14.30
2009,05,21,10,57,14.30
2009,05,21,10,58,14.40
2009,05,21,10,59,14.50
2009,05,21,11,00,14.50
2009,05,21,11,01,14.60
2009,05,21,11,02,14.70
2009,05,21,11,03,14.70
2009,05,21,11,04,14.70
2009,05,21,11,05,14.80
2009,05,21,11,06,14.80
2009,05,21,11,07,14.90
2009,05,21,11,08,15.00
2009,05,21,11,09,15.00
2009,05,21,11,10,15.00
2009,05,21,11,11,15.00
2009,05,21,11,12,15.00
2009,05,21,11,13,15.10
2009,05,21,11,14,15.20
2009,05,21,11,15,15.20
2009,05,21,11,16,15.30
2009,05,21,11,17,15.30
2009,05,21,11,18,15.40
2009,05,21,11,19,15.40
2009,05,21,11,20,15.50
2009,05,21,11,21,15.50
2009,05,21,11,22,15.60
2009,05,21,11,23,15.60
2009,05,21,11,24,15.60
2009,05,21,11,25,15.60
2009,05,21,11,26,15.70
2009,05,21,11,27,15.70
2009,05,21,11,28,15.80
2009,05,21,11,29,15.80
2009,05,21,11,30,15.80
2009,05,21,11,31,15.90
2009,05,21,11,32,15.90
2009,05,21,11,33,15.90
2009,05,21,11,34,15.90
2009,05,21,11,35,15.90
2009,05,21,11,36,15.80
2009,05,21,11,37,15.80
2009,05,21,11,38,15.80
2009,05,21,11,39,15.80
2009,05,21,11,40,15.80
2009,05,21,11,41,15.80
2009,05,21,11,42,15.90
2009,05,21,11,43,15.90
2009,05,21,11,44,16.00
2009,05,21,11,45,16.00
2009,05,21,11,46,16.10
2009,05,21,11,47,16.20
2009,05,21,11,48,16.20
2009,05,21,11,49,16.30
2009,05,21,11,50,16.30
2009,05,21,11,51,16.30
2009,05,21,11,52,16.40
2009,05,21,11,53,16.40
2009,05,21,11,54,16.50
2009,05,21,11,55,16.60
2009,05,21,11,56,16.60
2009,05,21,11,57,16.60
2009,05,21,11,58,16.60
2009,05,21,11,59,16.60
2009,05,21,12,00,16.60
2009,05,21,12,01,16.60
2009,05,21,12,02,16.60
2009,05,21,12,03,16.60
2009,05,21,12,04,16.60
2009,05,21,12,05,16.60
2009,05,21,12,06,16.70
2009,05,21,12,07,16.70
2009,05,21,12,08,16.70
2009,05,21,12,09,16.80
2009,05,21,12,10,16.80
2009,05,21,12,11,16.80
2009,05,21,12,12,16.90
2009,05,21,12,13,17.00
2009,05,21,12,14,17.00
2009,05,21,12,15,17.10
2009,05,21,12,16,17.00
2009,05,21,12,17,17.00
2009,05,21,12,18,17.00
2009,05,21,12,19,17.00
2009,05,21,12,20,16.90
2009,05,21,12,21,16.90
2009,05,21,12,22,16.90
2009,05,21,12,23,17.00
2009,05,21,12,24,17.00
2009,05,21,12,25,17.10
2009,05,21,12,26,17.10
2009,05,21,12,27,17.20
2009,05,21,12,28,17.20
2009,05,21,12,29,17.20
2009,05,21,12,30,17.20
2009,05,21,12,31,17.10
2009,05,21,12,32,17.10
2009,05,21,12,33,17.10
2009,05,21,12,34,17.10
2009,05,21,12,35,17.10
2009,05,21,12,36,17.10
2009,05,21,12,37,17.00
2009,05,21,12,38,16.80
2009,05,21,12,39,16.80
2009,05,21,12,40,16.80
2009,05,21,12,41,16.80
2009,05,21,12,42,16.80
2009,05,21,12,43,16.90
2009,05,21,12,44,16.90
2009,05,21,12,45,16.90
2009,05,21,12,46,16.90
2009,05,21,12,47,17.00
2009,05,21,12,48,17.10
2009,05,21,12,49,17.10
2009,05,21,12,50,17.20
2009,05,21,12,51,17.30
2009,05,21,12,52,17.40
2009,05,21,12,53,17.40
2009,05,21,12,54,17.50
2009,05,21,12,55,17.50
2009,05,21,12,56,17.50
2009,05,21,12,57,17.50
2009,05,21,12,58,17.40
2009,05,21,12,59,17.40
2009,05,21,13,00,17.40
2009,05,21,13,01,17.30
2009,05,21,13,02,17.30
2009,05,21,13,03,17.20
2009,05,21,13,04,17.20
2009,05,21,13,05,17.20
2009,05,21,13,06,17.10
2009,05,21,13,07,17.20
2009,05,21,13,08,17.20
2009,05,21,13,09,17.20
2009,05,21,13,10,17.30
2009,05,21,13,11,17.30
2009,05,21,13,12,17.40
2009,05,21,13,13,17.40
2009,05,21,13,14,17.50
2009,05,21,13,15,17.50
2009,05,21,13,16,17.60
2009,05,21,13,17,17.60
2009,05,21,13,18,17.80
2009,05,21,13,19,17.90
2009,05,21,13,20,18.00
2009,05,21,13,21,18.10
2009,05,21,13,22,18.20
2009,05,21,13,23,18.10
2009,05,21,13,24,18.10
2009,05,21,13,25,18.10
2009,05,21,13,26,18.10
2009,05,21,13,27,18.00
2009,05,21,13,28,18.10
2009,05,21,13,29,18.00
2009,05,21,13,30,17.90
2009,05,21,13,31,17.90
2009,05,21,13,32,18.00
2009,05,21,13,33,18.00
2009,05,21,13,34,18.10
2009,05,21,13,35,18.10
2009,05,21,13,36,18.10
2009,05,21,13,37,18.20
2009,05,21,13,38,18.30
2009,05,21,13,39,18.30
2009,05,21,13,40,18.30
2009,05,21,13,41,18.30
2009,05,21,13,42,18.40
2009,05,21,13,43,18.60
2009,05,21,13,44,18.60
2009,05,21,13,45,18.70
2009,05,21,13,46,18.80
2009,05,21,13,47,18.90
2009,05,21,13,48,18.90
2009,05,21,13,49,18.80
2009,05,21,13,50,18.70
2009,05,21,13,51,18.80
2009,05,21,13,52,18.80
2009,05,21,13,53,18.80
2009,05,21,13,54,18.80
2009,05,21,13,55,18.70
2009,05,21,13,56,18.70
2009,05,21,13,57,18.70
2009,05,21,13,58,18.70
2009,05,21,13,59,18.70
2009,05,21,14,00,18.60
2009,05,21,14,01,18.60
2009,05,21,14,02,18.50
2009,05,21,14,03,18.60
2009,05,21,14,04,18.60
2009,05,21,14,05,18.70
2009,05,21,14,06,18.70
2009,05,21,14,07,18.70
2009,05,21,14,08,18.60
2009,05,21,14,09,18.60
2009,05,21,14,10,18.60
2009,05,21,14,11,18.60
2009,05,21,14,12,18.60
2009,05,21,14,13,18.60
2009,05,21,14,14,18.60
2009,05,21,14,15,18.60
2009,05,21,14,16,18.50
2009,05,21,14,17,18.40
2009,05,21,14,18,18.30
2009,05,21,14,19,18.20
2009,05,21,14,20,18.20
2009,05,21,14,21,18.20
2009,05,21,14,22,18.20
2009,05,21,14,23,18.20
2009,05,21,14,24,18.20
2009,05,21,14,25,18.20
2009,05,21,14,26,18.30
2009,05,21,14,27,18.40
2009,05,21,14,28,18.50
2009,05,21,14,29,18.60
2009,05,21,14,30,18.70
2009,05,21,14,31,18.80
2009,05,21,14,32,18.80
2009,05,21,14,33,18.90
2009,05,21,14,34,19.00
2009,05,21,14,35,19.00
2009,05,21,14,36,19.10
2009,05,21,14,37,19.20
2009,05,21,14,38,19.30
2009,05,21,14,39,19.30
2009,05,21,14,40,19.40
2009,05,21,14,41,19.40
2009,05,21,14,42,19.30
2009,05,21,14,43,19.30
2009,05,21,14,44,19.40
2009,05,21,14,45,19.50
2009,05,21,14,46,19.50
2009,05,21,14,47,19.60
2009,05,21,14,48,19.70
2009,05,21,14,49,19.70
2009,05,21,14,50,19.80
2009,05,21,14,51,19.90
2009,05,21,14,52,19.90
2009,05,21,14,53,19.90
2009,05,21,14,54,19.90
2009,05,21,14,55,19.90
2009,05,21,14,56,19.90
2009,05,21,14,57,19.90
2009,05,21,14,58,20.00
2009,05,21,14,59,20.10
2009,05,21,15,00,20.10
2009,05,21,15,01,20.00
2009,05,21,15,02,20.00
2009,05,21,15,03,20.00
2009,05,21,15,04,20.00
2009,05,21,15,05,20.10
2009,05,21,15,06,20.00
2009,05,21,15,07,19.90
2009,05,21,15,08,19.80
2009,05,21,15,09,19.80
2009,05,21,15,10,19.80
2009,05,21,15,11,19.70
2009,05,21,15,12,19.80
2009,05,21,15,13,19.80
2009,05,21,15,14,19.80
2009,05,21,15,15,19.80
2009,05,21,15,16,19.80
2009,05,21,15,17,19.80
2009,05,21,15,18,19.70
2009,05,21,15,19,19.70
2009,05,21,15,20,19.60
2009,05,21,15,21,19.50
2009,05,21,15,22,19.40
2009,05,21,15,23,19.40
2009,05,21,15,24,19.40
2009,05,21,15,25,19.50
2009,05,21,15,26,19.50
2009,05,21,15,27,19.60
2009,05,21,15,28,19.70
2009,05,21,15,29,19.80
2009,05,21,15,30,20.00
2009,05,21,15,31,20.00
2009,05,21,15,32,20.20
2009,05,21,15,33,20.30
2009,05,21,15,34,20.30
2009,05,21,15,35,20.40
2009,05,21,15,36,20.40
2009,05,21,15,37,20.40
2009,05,21,15,38,20.40
2009,05,21,15,39,20.30
2009,05,21,15,40,20.20
2009,05,21,15,41,20.10
2009,05,21,15,42,20.00
2009,05,21,15,43,19.90
2009,05,21,15,44,19.80
2009,05,21,15,45,19.80
2009,05,21,15,46,19.80
2009,05,21,15,47,19.80
2009,05,21,15,48,19.80
2009,05,21,15,49,19.90
2009,05,21,15,50,19.90
2009,05,21,15,51,20.00
2009,05,21,15,52,20.10
2009,05,21,15,53,20.10
2009,05,21,15,54,20.10
2009,05,21,15,55,20.10
2009,05,21,15,56,20.20
2009,05,21,15,57,20.20
2009,05,21,15,58,20.20
2009,05,21,15,59,20.20
2009,05,21,16,00,20.10
2009,05,21,16,01,20.10
2009,05,21,16,02,20.00
2009,05,21,16,03,20.00
2009,05,21,16,04,20.00
2009,05,21,16,05,20.00
2009,05,21,16,06,19.90
2009,05,21,16,07,19.80
2009,05,21,16,08,19.80
2009,05,21,16,09,19.80
2009,05,21,16,10,19.80
2009,05,21,16,11,19.80
2009,05,21,16,12,19.90
2009,05,21,16,13,19.90
2009,05,21,16,14,19.90
2009,05,21,16,15,20.00
2009,05,21,16,16,20.10
2009,05,21,16,17,20.20
2009,05,21,16,18,20.30
2009,05,21,16,19,20.30
2009,05,21,16,20,20.20
2009,05,21,16,21,20.00
2009,05,21,16,22,20.00
2009,05,21,16,23,20.00
2009,05,21,16,24,20.10
2009,05,21,16,25,20.10
2009,05,21,16,26,20.10
2009,05,21,16,27,20.10
2009,05,21,16,28,20.20
2009,05,21,16,29,20.30
2009,05,21,16,30,20.30
2009,05,21,16,31,20.40
2009,05,21,16,32,20.50
2009,05,21,16,33,20.50
2009,05,21,16,34,20.50
2009,05,21,16,35,20.50
2009,05,21,16,36,20.40
2009,05,21,16,37,20.40
2009,05,21,16,38,20.40
2009,05,21,16,39,20.40
2009,05,21,16,40,20.40
2009,05,21,16,41,20.40
2009,05,21,16,42,20.40
2009,05,21,16,43,20.30
2009,05,21,16,44,20.30
2009,05,21,16,45,20.20
2009,05,21,16,46,20.20
2009,05,21,16,47,20.20
2009,05,21,16,48,20.20
2009,05,21,16,49,20.20
2009,05,21,16,50,20.20
2009,05,21,16,51,20.30
2009,05,21,16,52,20.30
2009,05,21,16,53,20.40
2009,05,21,16,54,20.50
2009,05,21,16,55,20.60
2009,05,21,16,56,20.60
2009,05,21,16,57,20.70
2009,05,21,16,58,20.70
2009,05,21,16,59,20.80
2009,05,21,17,00,20.80
2009,05,21,17,01,20.90
2009,05,21,17,02,20.90
2009,05,21,17,03,20.90
2009,05,21,17,04,21.00
2009,05,21,17,05,21.10
2009,05,21,17,06,21.10
2009,05,21,17,07,21.10
2009,05,21,17,08,21.10
2009,05,21,17,09,21.10
2009,05,21,17,10,21.10
2009,05,21,17,11,21.00
2009,05,21,17,12,21.00
2009,05,21,17,13,21.00
2009,05,21,17,14,21.10
2009,05,21,17,15,21.10
2009,05,21,17,16,21.10
2009,05,21,17,17,21.10
2009,05,21,17,18,21.20
2009,05,21,17,19,21.20
2009,05,21,17,20,21.10
2009,05,21,17,21,20.90
2009,05,21,17,22,20.80
2009,05,21,17,23,20.70
2009,05,21,17,24,20.60
2009,05,21,17,25,20.60
2009,05,21,17,26,20.50
2009,05,21,17,27,20.50
2009,05,21,17,28,20.50
2009,05,21,17,29,20.50
2009,05,21,17,30,20.50
2009,05,21,17,31,20.60
2009,05,21,17,32,20.60
2009,05,21,17,33,20.70
2009,05,21,17,34,20.70
2009,05,21,17,35,20.70
2009,05,21,17,36,20.80
2009,05,21,17,37,20.70
2009,05,21,17,38,20.70
2009,05,21,17,39,20.70
2009,05,21,17,40,20.70
2009,05,21,17,41,20.70
2009,05,21,17,42,20.70
2009,05,21,17,43,20.70